Time,TemperatureF,DewpointF,PressureIn,WindDirection,WindDirectionDegrees,WindSpeedMPH,WindSpeedGustMPH,Humidity,HourlyPrecipIn,Conditions,Clouds,dailyrainin,SoftwareType,DateUTC
2013-08-03 00:02:00,52.5,29.2,30.03,North,2,0.0,0.0,40,0.00,,---,0.00,VWS V14.01,2013-08-03 07:02:00,
2013-08-03 00:07:00,52.5,30.1,30.03,North,2,0.0,0.0,42,0.00,,---,0.00,VWS V14.01,2013-08-03 07:07:00,
2013-08-03 00:13:00,52.5,30.1,30.03,North,2,0.0,0.0,42,0.00,,---,0.00,VWS V14.01,2013-08-03 07:13:00,
2013-08-03 00:19:00,52.3,30.0,30.03,North,2,0.0,0.0,42,0.00,,---,0.00,VWS V14.01,2013-08-03 07:19:00,
2013-08-03 00:26:00,52.0,29.6,30.03,North,2,0.0,0.0,42,0.00,,---,0.00,VWS V14.01,2013-08-03 07:26:00,
2013-08-03 00:32:00,51.8,29.5,30.03,North,2,0.0,0.0,42,0.00,,---,0.00,VWS V14.01,2013-08-03 07:32:00,
2013-08-03 00:37:00,51.6,30.2,30.03,North,2,0.0,0.0,44,0.00,,---,0.00,VWS V14.01,2013-08-03 07:37:00,
2013-08-03 00:42:00,50.9,29.5,30.03,North,2,0.0,0.0,44,0.00,,---,0.00,VWS V14.01,2013-08-03 07:42:00,
2013-08-03 00:48:00,50.4,29.0,30.03,North,2,0.0,0.0,44,0.00,,---,0.00,VWS V14.01,2013-08-03 07:48:00,
2013-08-03 00:54:00,50.2,28.9,30.03,NE,41,0.0,0.0,44,0.00,,---,0.00,VWS V14.01,2013-08-03 07:54:00,
2013-08-03 00:59:00,50.2,28.9,30.03,NE,41,0.0,0.0,44,0.00,,---,0.00,VWS V14.01,2013-08-03 07:59:00,
2013-08-03 01:04:00,50.2,29.7,30.03,NE,41,0.0,0.0,45,0.00,,---,0.00,VWS V14.01,2013-08-03 08:04:00,
2013-08-03 01:10:00,49.8,29.4,30.03,NE,41,0.0,0.0,45,0.00,,---,0.00,VWS V14.01,2013-08-03 08:10:00,
2013-08-03 01:15:00,49.6,29.2,30.03,ESE,113,0.0,0.0,45,0.00,,---,0.00,VWS V14.01,2013-08-03 08:15:00,
2013-08-03 01:20:00,49.5,29.8,30.03,ESE,113,0.0,0.0,46,0.00,,---,0.00,VWS V14.01,2013-08-03 08:20:00,
2013-08-03 01:26:00,49.3,29.7,30.03,East,100,0.0,0.0,46,0.00,,---,0.00,VWS V14.01,2013-08-03 08:26:00,
2013-08-03 01:32:00,48.7,29.2,30.03,NNE,23,0.0,0.0,46,0.00,,---,0.00,VWS V14.01,2013-08-03 08:32:00,
2013-08-03 01:38:00,48.2,28.7,30.03,NNE,23,0.0,0.0,46,0.00,,---,0.00,VWS V14.01,2013-08-03 08:38:00,
2013-08-03 01:44:00,48.4,28.8,30.03,NNE,23,0.0,0.0,46,0.00,,---,0.00,VWS V14.01,2013-08-03 08:44:00,
2013-08-03 01:49:00,48.4,29.6,30.03,SSE,151,0.0,0.0,48,0.00,,---,0.00,VWS V14.01,2013-08-03 08:49:00,
2013-08-03 01:54:00,48.4,29.6,30.03,SSE,151,0.0,0.0,48,0.00,,---,0.00,VWS V14.01,2013-08-03 08:54:00,
2013-08-03 02:00:00,48.2,29.5,30.03,SSE,151,0.0,0.0,48,0.00,,---,0.00,VWS V14.01,2013-08-03 09:00:00,
2013-08-03 02:05:00,47.7,29.7,30.03,SSE,151,0.0,0.0,50,0.00,,---,0.00,VWS V14.01,2013-08-03 09:05:00,
2013-08-03 02:11:00,47.3,29.4,30.03,SSE,151,0.0,0.0,50,0.00,,---,0.00,VWS V14.01,2013-08-03 09:11:00,
2013-08-03 02:17:00,47.3,29.4,30.03,SSE,151,0.0,0.0,50,0.00,,---,0.00,VWS V14.01,2013-08-03 09:17:00,
2013-08-03 02:23:00,47.3,30.1,30.03,SSE,151,0.0,0.0,51,0.00,,---,0.00,VWS V14.01,2013-08-03 09:23:00,
2013-08-03 02:28:00,47.7,30.4,30.03,SSE,151,0.0,0.0,51,0.00,,---,0.00,VWS V14.01,2013-08-03 09:28:00,
2013-08-03 02:33:00,47.3,30.1,30.03,SSE,151,0.0,0.0,51,0.00,,---,0.00,VWS V14.01,2013-08-03 09:33:00,
2013-08-03 02:39:00,47.1,29.9,30.03,SSE,151,0.0,0.0,51,0.00,,---,0.00,VWS V14.01,2013-08-03 09:39:00,
2013-08-03 02:45:00,46.9,29.8,30.03,SSE,151,0.0,0.0,51,0.00,,---,0.00,VWS V14.01,2013-08-03 09:45:00,
2013-08-03 02:51:00,46.6,30.1,30.03,SSE,151,0.0,0.0,52,0.00,,---,0.00,VWS V14.01,2013-08-03 09:51:00,
2013-08-03 02:56:00,46.4,30.0,30.03,SSE,151,0.0,0.0,52,0.00,,---,0.00,VWS V14.01,2013-08-03 09:56:00,
2013-08-03 03:01:00,46.4,30.0,30.03,SSE,151,0.0,0.0,52,0.00,,---,0.00,VWS V14.01,2013-08-03 10:01:00,
2013-08-03 03:06:00,46.2,31.2,30.03,ENE,75,0.0,0.0,56,0.00,,---,0.00,VWS V14.01,2013-08-03 10:06:00,
2013-08-03 03:07:00,46.0,31.0,30.03,ENE,75,0.0,0.0,56,0.00,,---,0.00,VWS V14.01,2013-08-03 10:07:00,
2013-08-03 03:13:00,45.9,30.9,30.03,ENE,75,0.0,0.0,56,0.00,,---,0.00,VWS V14.01,2013-08-03 10:13:00,
2013-08-03 03:18:00,45.9,30.9,30.03,ENE,75,0.0,0.0,56,0.00,,---,0.00,VWS V14.01,2013-08-03 10:18:00,
2013-08-03 03:23:00,45.9,30.9,30.03,ENE,75,0.0,0.0,56,0.00,,---,0.00,VWS V14.01,2013-08-03 10:23:00,
2013-08-03 03:29:00,45.9,31.5,30.03,SE,124,0.0,0.0,57,0.00,,---,0.00,VWS V14.01,2013-08-03 10:29:00,
2013-08-03 03:35:00,45.7,31.3,30.03,SE,124,0.0,0.0,57,0.00,,---,0.00,VWS V14.01,2013-08-03 10:35:00,
2013-08-03 03:41:00,44.8,30.5,30.03,North,357,0.0,0.0,57,0.00,,---,0.00,VWS V14.01,2013-08-03 10:41:00,
2013-08-03 03:46:00,44.6,30.3,30.03,North,353,0.0,0.0,57,0.00,,---,0.00,VWS V14.01,2013-08-03 10:46:00,
2013-08-03 03:51:00,44.8,30.5,30.00,North,353,0.0,0.0,57,0.00,,---,0.00,VWS V14.01,2013-08-03 10:51:00,
2013-08-03 03:57:00,44.8,30.5,30.00,North,353,0.0,0.0,57,0.00,,---,0.00,VWS V14.01,2013-08-03 10:57:00,
2013-08-03 04:02:00,44.8,30.5,30.00,ESE,103,0.0,0.0,57,0.00,,---,0.00,VWS V14.01,2013-08-03 11:02:00,
2013-08-03 04:07:00,44.6,30.3,30.00,East,98,0.0,0.0,57,0.00,,---,0.00,VWS V14.01,2013-08-03 11:07:00,
2013-08-03 04:12:00,44.1,29.8,30.00,East,98,0.0,0.0,57,0.00,,---,0.00,VWS V14.01,2013-08-03 11:12:00,
2013-08-03 04:17:00,43.7,29.5,30.00,East,98,0.0,0.0,57,0.00,,---,0.00,VWS V14.01,2013-08-03 11:17:00,
2013-08-03 04:23:00,43.3,29.1,30.00,East,98,0.0,0.0,57,0.00,,---,0.00,VWS V14.01,2013-08-03 11:23:00,
2013-08-03 04:28:00,43.3,29.1,30.00,East,98,0.0,0.0,57,0.00,,---,0.00,VWS V14.01,2013-08-03 11:28:00,
2013-08-03 04:33:00,43.2,29.6,30.00,East,98,0.0,0.0,58,0.00,,---,0.00,VWS V14.01,2013-08-03 11:33:00,
2013-08-03 04:38:00,43.0,29.4,30.00,East,98,0.0,0.0,58,0.00,,---,0.00,VWS V14.01,2013-08-03 11:38:00,
2013-08-03 04:45:00,42.8,29.3,30.00,East,98,0.0,0.0,58,0.00,,---,0.00,VWS V14.01,2013-08-03 11:45:00,
2013-08-03 04:51:00,42.8,29.3,30.03,East,98,0.0,0.0,58,0.00,,---,0.00,VWS V14.01,2013-08-03 11:51:00,
2013-08-03 04:56:00,42.8,29.3,30.03,East,98,0.0,0.0,58,0.00,,---,0.00,VWS V14.01,2013-08-03 11:56:00,
2013-08-03 05:01:00,42.3,28.8,30.03,East,98,0.0,0.0,58,0.00,,---,0.00,VWS V14.01,2013-08-03 12:01:00,
2013-08-03 05:07:00,42.3,28.8,30.03,East,98,0.0,0.0,58,0.00,,---,0.00,VWS V14.01,2013-08-03 12:07:00,
2013-08-03 05:13:00,42.4,29.5,30.03,East,98,0.0,0.0,60,0.00,,---,0.00,VWS V14.01,2013-08-03 12:13:00,
2013-08-03 05:18:00,42.1,29.2,30.03,East,98,0.0,0.0,60,0.00,,---,0.00,VWS V14.01,2013-08-03 12:18:00,
2013-08-03 05:23:00,41.9,29.0,30.03,East,98,0.0,0.0,60,0.00,,---,0.00,VWS V14.01,2013-08-03 12:23:00,
2013-08-03 05:29:00,41.7,28.9,30.03,East,98,0.0,0.0,60,0.00,,---,0.00,VWS V14.01,2013-08-03 12:29:00,
2013-08-03 05:34:00,42.1,29.2,30.03,East,98,0.0,0.0,60,0.00,,---,0.00,VWS V14.01,2013-08-03 12:34:00,
2013-08-03 05:39:00,41.9,29.0,30.03,East,98,0.0,0.0,60,0.00,,---,0.00,VWS V14.01,2013-08-03 12:39:00,
2013-08-03 05:44:00,41.9,29.0,30.03,East,98,0.0,0.0,60,0.00,,---,0.00,VWS V14.01,2013-08-03 12:44:00,
2013-08-03 05:51:00,41.7,28.9,30.03,ESE,106,0.0,0.0,60,0.00,,---,0.00,VWS V14.01,2013-08-03 12:51:00,
2013-08-03 05:56:00,41.4,28.5,30.03,ESE,106,0.0,0.0,60,0.00,,---,0.00,VWS V14.01,2013-08-03 12:56:00,
2013-08-03 06:02:00,41.2,28.4,30.03,ESE,106,0.0,0.0,60,0.00,,---,0.00,VWS V14.01,2013-08-03 13:02:00,
2013-08-03 06:07:00,41.2,28.4,30.03,ESE,107,0.0,0.0,60,0.00,,---,0.00,VWS V14.01,2013-08-03 13:07:00,
2013-08-03 06:13:00,41.2,28.4,30.03,ESE,107,0.0,0.0,60,0.00,,---,0.00,VWS V14.01,2013-08-03 13:13:00,
2013-08-03 06:19:00,41.0,28.2,30.03,ESE,107,0.0,0.0,60,0.00,,---,0.00,VWS V14.01,2013-08-03 13:19:00,
2013-08-03 06:25:00,40.8,28.0,30.03,ENE,57,0.0,0.0,60,0.00,,---,0.00,VWS V14.01,2013-08-03 13:25:00,
2013-08-03 06:30:00,41.0,28.2,30.03,ENE,59,0.0,0.0,60,0.00,,---,0.00,VWS V14.01,2013-08-03 13:30:00,
2013-08-03 06:35:00,41.7,28.9,30.03,ENE,62,0.0,0.0,60,0.00,,---,0.00,VWS V14.01,2013-08-03 13:35:00,
2013-08-03 06:41:00,42.8,29.3,30.03,ENE,62,0.0,0.0,58,0.00,,---,0.00,VWS V14.01,2013-08-03 13:41:00,
2013-08-03 06:46:00,43.5,30.0,30.03,ENE,62,0.0,0.0,58,0.00,,---,0.00,VWS V14.01,2013-08-03 13:46:00,
2013-08-03 06:52:00,44.4,30.8,30.03,ENE,62,0.0,0.0,58,0.00,,---,0.00,VWS V14.01,2013-08-03 13:52:00,
2013-08-03 06:57:00,45.1,31.5,30.03,North,357,0.0,0.0,58,0.00,,---,0.00,VWS V14.01,2013-08-03 13:57:00,
2013-08-03 07:02:00,46.0,32.3,30.03,North,357,0.0,0.0,58,0.00,,---,0.00,VWS V14.01,2013-08-03 14:02:00,
2013-08-03 07:07:00,47.3,32.8,30.03,North,357,0.0,0.0,57,0.00,,---,0.00,VWS V14.01,2013-08-03 14:07:00,
2013-08-03 07:13:00,48.7,34.2,30.03,ESE,106,0.0,0.0,57,0.00,,---,0.00,VWS V14.01,2013-08-03 14:13:00,
2013-08-03 07:18:00,50.0,34.7,30.03,ESE,106,0.0,0.0,56,0.00,,---,0.00,VWS V14.01,2013-08-03 14:18:00,
2013-08-03 07:23:00,51.3,35.9,30.03,ESE,118,0.0,0.0,56,0.00,,---,0.00,VWS V14.01,2013-08-03 14:23:00,
2013-08-03 07:29:00,53.4,37.2,30.03,SE,144,0.0,0.0,54,0.00,,---,0.00,VWS V14.01,2013-08-03 14:29:00,
2013-08-03 07:34:00,55.0,38.7,30.03,SE,144,0.0,0.0,54,0.00,,---,0.00,VWS V14.01,2013-08-03 14:34:00,
2013-08-03 07:39:00,56.3,39.2,30.03,SE,144,0.0,0.0,52,0.00,,---,0.00,VWS V14.01,2013-08-03 14:39:00,
2013-08-03 07:44:00,58.1,40.1,30.03,SE,144,0.0,0.0,51,0.00,,---,0.00,VWS V14.01,2013-08-03 14:44:00,
2013-08-03 07:49:00,59.5,40.6,30.03,SE,144,0.0,0.0,50,0.00,,---,0.00,VWS V14.01,2013-08-03 14:49:00,
2013-08-03 07:54:00,61.2,39.7,30.06,SE,144,0.0,0.0,45,0.00,,---,0.00,VWS V14.01,2013-08-03 14:54:00,
2013-08-03 08:00:00,62.6,39.2,30.06,SE,142,0.0,0.0,42,0.00,,---,0.00,VWS V14.01,2013-08-03 15:00:00,
2013-08-03 08:05:00,64.2,39.7,30.06,South,178,0.0,0.0,40,0.00,,---,0.00,VWS V14.01,2013-08-03 15:05:00,
2013-08-03 08:10:00,65.7,40.0,30.06,South,178,0.0,0.0,39,0.00,,---,0.00,VWS V14.01,2013-08-03 15:10:00,
2013-08-03 08:15:00,66.9,39.1,30.06,SW,215,0.0,0.0,36,0.00,,---,0.00,VWS V14.01,2013-08-03 15:15:00,
2013-08-03 08:21:00,68.4,39.3,30.06,SW,215,0.0,0.0,34,0.00,,---,0.00,VWS V14.01,2013-08-03 15:21:00,
2013-08-03 08:26:00,69.4,40.2,30.06,NNW,343,0.0,0.0,34,0.00,,---,0.00,VWS V14.01,2013-08-03 15:26:00,
2013-08-03 08:31:00,70.7,40.2,30.06,NNW,339,0.0,0.0,33,0.00,,---,0.00,VWS V14.01,2013-08-03 15:31:00,
2013-08-03 08:37:00,72.1,40.3,30.06,West,260,3.1,3.1,32,0.00,,---,0.00,VWS V14.01,2013-08-03 15:37:00,
2013-08-03 08:43:00,73.8,37.7,30.06,WSW,243,2.7,3.1,27,0.00,,---,0.00,VWS V14.01,2013-08-03 15:43:00,
2013-08-03 08:49:00,75.0,35.8,30.06,WSW,257,5.4,5.4,24,0.00,,---,0.00,VWS V14.01,2013-08-03 15:49:00,
2013-08-03 08:54:00,76.3,35.2,30.06,WSW,257,5.4,5.4,22,0.00,,---,0.00,VWS V14.01,2013-08-03 15:54:00,
2013-08-03 08:59:00,77.5,36.3,30.06,SSW,213,6.3,6.3,22,0.00,,---,0.00,VWS V14.01,2013-08-03 15:59:00,
2013-08-03 09:04:00,78.1,36.8,30.06,WSW,258,4.9,4.9,22,0.00,,---,0.00,VWS V14.01,2013-08-03 16:04:00,
2013-08-03 09:10:00,78.4,37.0,30.06,West,262,6.3,6.3,22,0.00,,---,0.00,VWS V14.01,2013-08-03 16:10:00,
2013-08-03 09:15:00,78.8,37.3,30.06,West,262,6.3,6.3,22,0.00,,---,0.00,VWS V14.01,2013-08-03 16:15:00,
2013-08-03 09:20:00,79.0,37.5,30.06,West,262,6.3,6.3,22,0.00,,---,0.00,VWS V14.01,2013-08-03 16:20:00,
2013-08-03 09:25:00,79.0,37.5,30.06,West,262,6.3,6.3,22,0.00,,---,0.00,VWS V14.01,2013-08-03 16:25:00,
2013-08-03 09:30:00,79.0,37.5,30.06,West,262,6.3,6.3,22,0.00,,---,0.00,VWS V14.01,2013-08-03 16:30:00,
2013-08-03 09:36:00,78.8,37.3,30.06,West,262,5.4,5.4,22,0.00,,---,0.00,VWS V14.01,2013-08-03 16:36:00,
2013-08-03 09:41:00,78.3,36.9,30.06,West,259,10.1,10.1,22,0.00,,---,0.00,VWS V14.01,2013-08-03 16:41:00,
2013-08-03 09:46:00,79.3,37.8,30.06,West,265,10.1,10.1,22,0.00,,---,0.00,VWS V14.01,2013-08-03 16:46:00,
2013-08-03 09:52:00,79.5,38.0,30.06,West,277,8.7,10.5,22,0.00,,---,0.00,VWS V14.01,2013-08-03 16:52:00,
2013-08-03 09:58:00,79.5,38.0,30.06,WNW,288,6.3,10.5,22,0.00,,---,0.00,VWS V14.01,2013-08-03 16:58:00,
2013-08-03 10:04:00,80.1,38.4,30.06,West,277,10.5,11.9,22,0.00,,---,0.00,VWS V14.01,2013-08-03 17:04:00,
2013-08-03 10:09:00,80.4,38.7,30.06,WSW,251,7.6,8.1,22,0.00,,---,0.00,VWS V14.01,2013-08-03 17:09:00,
2013-08-03 10:15:00,80.8,37.2,30.06,West,263,8.7,10.5,21,0.00,,---,0.00,VWS V14.01,2013-08-03 17:15:00,
2013-08-03 10:20:00,81.0,37.4,30.06,WSW,242,8.3,11.0,21,0.00,,---,0.00,VWS V14.01,2013-08-03 17:20:00,
2013-08-03 10:26:00,81.3,37.7,30.06,NW,311,5.4,8.3,21,0.00,,---,0.00,VWS V14.01,2013-08-03 17:26:00,
2013-08-03 10:31:00,81.0,37.4,30.06,WNW,293,7.6,8.1,21,0.00,,---,0.00,VWS V14.01,2013-08-03 17:31:00,
2013-08-03 10:36:00,81.0,37.4,30.06,West,262,8.3,8.3,21,0.00,,---,0.00,VWS V14.01,2013-08-03 17:36:00,
2013-08-03 10:42:00,81.3,37.7,30.06,NW,318,7.6,8.3,21,0.00,,---,0.00,VWS V14.01,2013-08-03 17:42:00,
2013-08-03 10:47:00,81.9,38.1,30.06,WNW,292,6.3,10.1,21,0.00,,---,0.00,VWS V14.01,2013-08-03 17:47:00,
2013-08-03 10:53:00,82.4,38.6,30.06,WSW,247,8.1,12.3,21,0.00,,---,0.00,VWS V14.01,2013-08-03 17:53:00,
2013-08-03 10:58:00,82.9,39.0,30.06,West,267,8.7,8.7,21,0.00,,---,0.00,VWS V14.01,2013-08-03 17:58:00,
2013-08-03 11:04:00,82.9,39.0,30.06,WSW,250,10.1,10.1,21,0.00,,---,0.00,VWS V14.01,2013-08-03 18:04:00,
2013-08-03 11:09:00,81.7,38.0,30.06,West,263,6.3,8.7,21,0.00,,---,0.00,VWS V14.01,2013-08-03 18:09:00,
2013-08-03 11:14:00,82.2,38.4,30.06,WSW,250,9.2,10.5,21,0.00,,---,0.00,VWS V14.01,2013-08-03 18:14:00,
2013-08-03 11:20:00,82.9,39.0,30.06,WSW,253,8.7,13.2,21,0.00,,---,0.00,VWS V14.01,2013-08-03 18:20:00,
2013-08-03 11:26:00,84.2,38.2,30.06,West,268,12.8,14.5,20,0.00,,---,0.00,VWS V14.01,2013-08-03 18:26:00,
2013-08-03 11:31:00,84.7,38.6,30.06,West,272,6.3,13.2,20,0.00,,---,0.00,VWS V14.01,2013-08-03 18:31:00,
2013-08-03 11:37:00,84.6,38.5,30.06,WNW,286,10.1,13.2,20,0.00,,---,0.00,VWS V14.01,2013-08-03 18:37:00,
2013-08-03 11:42:00,84.7,38.6,30.06,SW,235,11.0,15.0,20,0.00,,---,0.00,VWS V14.01,2013-08-03 18:42:00,
2013-08-03 11:48:00,84.6,38.5,30.06,West,259,13.6,13.6,20,0.00,,---,0.00,VWS V14.01,2013-08-03 18:48:00,
2013-08-03 11:54:00,85.3,39.1,30.06,West,263,8.7,13.2,20,0.00,,---,0.00,VWS V14.01,2013-08-03 18:54:00,
2013-08-03 11:59:00,85.3,39.1,30.06,WNW,292,8.3,13.2,20,0.00,,---,0.00,VWS V14.01,2013-08-03 18:59:00,
2013-08-03 12:03:00,84.7,38.6,30.06,West,263,10.5,12.8,20,0.00,,---,0.00,VWS V14.01,2013-08-03 19:03:00,
2013-08-03 12:10:00,83.8,39.8,30.06,West,263,12.3,12.3,21,0.00,,---,0.00,VWS V14.01,2013-08-03 19:10:00,
2013-08-03 12:15:00,83.1,39.2,30.06,WNW,285,8.1,11.0,21,0.00,,---,0.00,VWS V14.01,2013-08-03 19:15:00,
2013-08-03 12:21:00,82.9,39.0,30.06,WNW,282,8.7,11.0,21,0.00,,---,0.00,VWS V14.01,2013-08-03 19:21:00,
2013-08-03 12:27:00,83.8,39.8,30.06,West,275,10.5,10.5,21,0.00,,---,0.00,VWS V14.01,2013-08-03 19:27:00,
2013-08-03 12:33:00,85.6,39.4,30.06,West,278,12.8,12.8,20,0.00,,---,0.00,VWS V14.01,2013-08-03 19:33:00,
2013-08-03 12:38:00,85.5,39.2,30.06,WSW,248,12.3,12.8,20,0.00,,---,0.00,VWS V14.01,2013-08-03 19:38:00,
2013-08-03 12:44:00,84.9,38.8,30.06,SW,233,10.1,15.4,20,0.00,,---,0.00,VWS V14.01,2013-08-03 19:44:00,
2013-08-03 12:50:00,85.3,39.1,30.06,WSW,245,8.3,10.5,20,0.00,,---,0.00,VWS V14.01,2013-08-03 19:50:00,
2013-08-03 12:55:00,84.7,38.6,30.06,WNW,285,6.3,10.5,20,0.00,,---,0.00,VWS V14.01,2013-08-03 19:55:00,
2013-08-03 13:01:00,85.6,39.4,30.06,West,265,13.6,13.6,20,0.00,,---,0.00,VWS V14.01,2013-08-03 20:01:00,
2013-08-03 13:07:00,85.8,39.5,30.03,WNW,300,11.0,15.4,20,0.00,,---,0.00,VWS V14.01,2013-08-03 20:07:00,
2013-08-03 13:13:00,84.7,38.6,30.03,West,268,13.2,13.2,20,0.00,,---,0.00,VWS V14.01,2013-08-03 20:13:00,
2013-08-03 13:18:00,84.6,38.5,30.03,WNW,283,10.5,12.3,20,0.00,,---,0.00,VWS V14.01,2013-08-03 20:18:00,
2013-08-03 13:24:00,85.3,39.1,30.06,West,271,8.1,11.9,20,0.00,,---,0.00,VWS V14.01,2013-08-03 20:24:00,
2013-08-03 13:29:00,86.4,40.0,30.06,West,274,8.1,12.8,20,0.00,,---,0.00,VWS V14.01,2013-08-03 20:29:00,
2013-08-03 13:35:00,87.1,40.5,30.06,West,259,12.8,12.8,20,0.00,,---,0.00,VWS V14.01,2013-08-03 20:35:00,
2013-08-03 13:40:00,87.4,40.8,30.06,West,267,11.0,13.6,20,0.00,,---,0.00,VWS V14.01,2013-08-03 20:40:00,
2013-08-03 13:46:00,85.3,39.1,30.06,WNW,288,11.0,11.0,20,0.00,,---,0.00,VWS V14.01,2013-08-03 20:46:00,
2013-08-03 13:52:00,86.0,39.7,30.06,NW,316,8.1,10.5,20,0.00,,---,0.00,VWS V14.01,2013-08-03 20:52:00,
2013-08-03 13:58:00,87.3,40.7,30.06,West,276,8.7,10.5,20,0.00,,---,0.00,VWS V14.01,2013-08-03 20:58:00,
2013-08-03 14:04:00,86.4,40.0,30.06,West,275,8.1,12.8,20,0.00,,---,0.00,VWS V14.01,2013-08-03 21:04:00,
2013-08-03 14:10:00,86.7,40.2,30.06,West,259,9.2,11.9,20,0.00,,---,0.00,VWS V14.01,2013-08-03 21:10:00,
2013-08-03 14:16:00,87.3,40.7,30.06,WNW,301,8.7,15.4,20,0.00,,---,0.00,VWS V14.01,2013-08-03 21:16:00,
2013-08-03 14:21:00,87.1,40.5,30.03,West,276,8.7,13.2,20,0.00,,---,0.00,VWS V14.01,2013-08-03 21:21:00,
2013-08-03 14:27:00,87.8,41.1,30.03,WSW,251,5.4,8.7,20,0.00,,---,0.00,VWS V14.01,2013-08-03 21:27:00,
2013-08-03 14:32:00,87.4,40.8,30.03,West,264,8.3,10.5,20,0.00,,---,0.00,VWS V14.01,2013-08-03 21:32:00,
2013-08-03 14:37:00,87.8,41.1,30.03,SW,236,12.8,12.8,20,0.00,,---,0.00,VWS V14.01,2013-08-03 21:37:00,
2013-08-03 14:42:00,88.3,41.6,30.03,WSW,246,12.3,13.2,20,0.00,,---,0.00,VWS V14.01,2013-08-03 21:42:00,
2013-08-03 14:47:00,88.2,41.4,30.03,WSW,248,11.0,12.8,20,0.00,,---,0.00,VWS V14.01,2013-08-03 21:47:00,
2013-08-03 14:52:00,86.2,39.8,30.03,NW,310,7.6,10.1,20,0.00,,---,0.00,VWS V14.01,2013-08-03 21:52:00,
2013-08-03 14:58:00,87.3,40.7,30.03,West,279,8.3,8.7,20,0.00,,---,0.00,VWS V14.01,2013-08-03 21:58:00,
2013-08-03 15:03:00,85.8,39.5,30.03,WSW,250,11.0,11.0,20,0.00,,---,0.00,VWS V14.01,2013-08-03 22:03:00,
2013-08-03 15:09:00,86.9,40.4,30.03,WSW,256,15.0,15.0,20,0.00,,---,0.00,VWS V14.01,2013-08-03 22:09:00,
2013-08-03 15:15:00,85.5,39.2,30.03,West,270,8.1,8.1,20,0.00,,---,0.00,VWS V14.01,2013-08-03 22:15:00,
2013-08-03 15:21:00,86.5,40.1,30.03,NW,324,7.6,10.1,20,0.00,,---,0.00,VWS V14.01,2013-08-03 22:21:00,
2013-08-03 15:27:00,87.4,40.8,30.03,WSW,253,12.3,17.0,20,0.00,,---,0.00,VWS V14.01,2013-08-03 22:27:00,
2013-08-03 15:32:00,88.7,41.9,30.03,WSW,248,10.5,15.0,20,0.00,,---,0.00,VWS V14.01,2013-08-03 22:32:00,
2013-08-03 15:37:00,87.6,41.0,30.03,West,262,12.8,12.8,20,0.00,,---,0.00,VWS V14.01,2013-08-03 22:37:00,
2013-08-03 15:43:00,88.5,41.7,30.03,WSW,250,11.0,13.2,20,0.00,,---,0.00,VWS V14.01,2013-08-03 22:43:00,
2013-08-03 15:49:00,89.2,42.3,30.03,SW,225,8.7,11.0,20,0.00,,---,0.00,VWS V14.01,2013-08-03 22:49:00,
2013-08-03 15:54:00,89.6,40.5,30.03,SW,235,10.5,12.3,18,0.00,,---,0.00,VWS V14.01,2013-08-03 22:54:00,
2013-08-03 16:00:00,86.5,40.1,30.03,NNW,330,8.7,11.0,20,0.00,,---,0.00,VWS V14.01,2013-08-03 23:00:00,
2013-08-03 16:06:00,87.1,40.5,30.03,West,264,10.1,12.3,20,0.00,,---,0.00,VWS V14.01,2013-08-03 23:06:00,
2013-08-03 16:12:00,87.3,40.7,30.03,West,275,6.3,11.0,20,0.00,,---,0.00,VWS V14.01,2013-08-03 23:12:00,
2013-08-03 16:18:00,87.6,41.0,30.03,WSW,253,6.3,12.8,20,0.00,,---,0.00,VWS V14.01,2013-08-03 23:18:00,
2013-08-03 16:24:00,87.4,40.8,30.03,WNW,297,7.6,10.1,20,0.00,,---,0.00,VWS V14.01,2013-08-03 23:24:00,
2013-08-03 16:29:00,87.4,40.8,30.03,WSW,239,10.5,12.8,20,0.00,,---,0.00,VWS V14.01,2013-08-03 23:29:00,
2013-08-03 16:35:00,87.1,40.5,30.03,WSW,256,8.3,10.5,20,0.00,,---,0.00,VWS V14.01,2013-08-03 23:35:00,
2013-08-03 16:40:00,87.1,40.5,30.03,WSW,258,8.1,9.2,20,0.00,,---,0.00,VWS V14.01,2013-08-03 23:40:00,
2013-08-03 16:46:00,86.2,39.8,30.03,WNW,292,11.9,12.3,20,0.00,,---,0.00,VWS V14.01,2013-08-03 23:46:00,
2013-08-03 16:52:00,86.2,39.8,30.03,WSW,238,10.5,13.2,20,0.00,,---,0.00,VWS V14.01,2013-08-03 23:52:00,
2013-08-03 16:57:00,86.9,40.4,30.03,West,264,11.0,11.0,20,0.00,,---,0.00,VWS V14.01,2013-08-03 23:57:00,
2013-08-03 17:03:00,86.0,39.7,30.03,West,265,8.1,8.1,20,0.00,,---,0.00,VWS V14.01,2013-08-04 00:03:00,
2013-08-03 17:08:00,84.7,38.6,30.03,WSW,250,8.7,10.5,20,0.00,,---,0.00,VWS V14.01,2013-08-04 00:08:00,
2013-08-03 17:14:00,84.4,38.3,30.03,West,266,8.1,10.5,20,0.00,,---,0.00,VWS V14.01,2013-08-04 00:14:00,
2013-08-03 17:20:00,83.7,39.6,30.03,West,265,8.1,8.7,21,0.00,,---,0.00,VWS V14.01,2013-08-04 00:20:00,
2013-08-03 17:26:00,83.1,39.2,30.03,WSW,257,8.7,10.1,21,0.00,,---,0.00,VWS V14.01,2013-08-04 00:26:00,
2013-08-03 17:32:00,84.2,38.2,30.03,WSW,256,8.1,11.9,20,0.00,,---,0.00,VWS V14.01,2013-08-04 00:32:00,
2013-08-03 17:38:00,82.8,38.9,30.03,West,266,5.8,8.3,21,0.00,,---,0.00,VWS V14.01,2013-08-04 00:38:00,
2013-08-03 17:43:00,83.1,39.2,30.03,WSW,258,8.1,10.1,21,0.00,,---,0.00,VWS V14.01,2013-08-04 00:43:00,
2013-08-03 17:49:00,83.1,39.2,30.03,WSW,255,11.0,13.2,21,0.00,,---,0.00,VWS V14.01,2013-08-04 00:49:00,
2013-08-03 17:55:00,83.3,39.3,30.03,West,268,10.5,10.5,21,0.00,,---,0.00,VWS V14.01,2013-08-04 00:55:00,
2013-08-03 18:00:00,81.9,38.1,30.03,WSW,258,11.0,11.0,21,0.00,,---,0.00,VWS V14.01,2013-08-04 01:00:00,
2013-08-03 18:06:00,82.0,38.3,30.03,WSW,250,10.5,10.5,21,0.00,,---,0.00,VWS V14.01,2013-08-04 01:06:00,
2013-08-03 18:11:00,81.5,37.8,30.03,WSW,257,8.1,10.1,21,0.00,,---,0.00,VWS V14.01,2013-08-04 01:11:00,
2013-08-03 18:17:00,81.7,38.0,30.03,WSW,252,7.6,8.3,21,0.00,,---,0.00,VWS V14.01,2013-08-04 01:17:00,
2013-08-03 18:22:00,81.5,37.8,30.03,WNW,284,8.3,8.7,21,0.00,,---,0.00,VWS V14.01,2013-08-04 01:22:00,
2013-08-03 18:27:00,80.8,37.2,30.03,West,261,7.6,8.3,21,0.00,,---,0.00,VWS V14.01,2013-08-04 01:27:00,
2013-08-03 18:32:00,81.1,37.5,30.03,SW,234,10.1,10.5,21,0.00,,---,0.00,VWS V14.01,2013-08-04 01:32:00,
2013-08-03 18:38:00,81.1,37.5,30.03,SW,227,8.7,8.7,21,0.00,,---,0.00,VWS V14.01,2013-08-04 01:38:00,
2013-08-03 18:43:00,80.1,38.4,30.03,SW,219,8.1,8.7,22,0.00,,---,0.00,VWS V14.01,2013-08-04 01:43:00,
2013-08-03 18:49:00,78.8,37.3,30.03,West,266,7.6,8.7,22,0.00,,---,0.00,VWS V14.01,2013-08-04 01:49:00,
2013-08-03 18:55:00,78.4,37.0,30.03,West,259,10.1,10.1,22,0.00,,---,0.00,VWS V14.01,2013-08-04 01:55:00,
2013-08-03 19:01:00,77.9,36.6,30.03,West,270,8.3,10.1,22,0.00,,---,0.00,VWS V14.01,2013-08-04 02:01:00,
2013-08-03 19:07:00,76.6,35.5,30.03,West,271,7.2,7.6,22,0.00,,---,0.00,VWS V14.01,2013-08-04 02:07:00,
2013-08-03 19:12:00,75.9,34.9,30.03,West,262,7.2,8.3,22,0.00,,---,0.00,VWS V14.01,2013-08-04 02:12:00,
2013-08-03 19:18:00,75.2,34.3,30.03,WSW,251,6.3,6.3,22,0.00,,---,0.00,VWS V14.01,2013-08-04 02:18:00,
2013-08-03 19:22:00,75.6,34.6,30.03,West,260,6.3,6.3,22,0.00,,---,0.00,VWS V14.01,2013-08-04 02:22:00,
2013-08-03 19:29:00,75.0,35.8,30.03,West,260,6.3,6.3,24,0.00,,---,0.00,VWS V14.01,2013-08-04 02:29:00,
2013-08-03 19:34:00,73.8,34.8,30.03,WSW,243,6.3,6.7,24,0.00,,---,0.00,VWS V14.01,2013-08-04 02:34:00,
2013-08-03 19:39:00,73.4,34.5,30.03,WSW,245,2.7,3.6,24,0.00,,---,0.00,VWS V14.01,2013-08-04 02:39:00,
2013-08-03 19:46:00,72.9,34.0,30.03,West,262,4.5,4.5,24,0.00,,---,0.00,VWS V14.01,2013-08-04 02:46:00,
2013-08-03 19:51:00,72.5,33.7,30.03,WSW,257,3.6,5.4,24,0.00,,---,0.00,VWS V14.01,2013-08-04 02:51:00,
2013-08-03 19:57:00,71.8,33.1,30.03,SW,223,3.1,3.6,24,0.00,,---,0.00,VWS V14.01,2013-08-04 02:57:00,
2013-08-03 20:02:00,71.2,36.9,30.03,SSW,212,4.0,6.3,28,0.00,,---,0.00,VWS V14.01,2013-08-04 03:02:00,
2013-08-03 20:08:00,70.9,36.6,30.03,West,265,6.3,6.3,28,0.00,,---,0.00,VWS V14.01,2013-08-04 03:08:00,
2013-08-03 20:13:00,70.9,36.6,30.03,WSW,255,4.0,5.8,28,0.00,,---,0.00,VWS V14.01,2013-08-04 03:13:00,
2013-08-03 20:19:00,70.9,36.6,30.03,WSW,246,2.2,3.1,28,0.00,,---,0.00,VWS V14.01,2013-08-04 03:19:00,
2013-08-03 20:24:00,70.3,36.2,30.03,SW,225,0.0,0.0,28,0.00,,---,0.00,VWS V14.01,2013-08-04 03:24:00,
2013-08-03 20:30:00,70.0,35.9,30.03,SW,227,0.0,0.0,28,0.00,,---,0.00,VWS V14.01,2013-08-04 03:30:00,
2013-08-03 20:35:00,69.6,36.8,30.03,WSW,247,3.6,3.6,30,0.00,,---,0.00,VWS V14.01,2013-08-04 03:35:00,
2013-08-03 20:40:00,68.9,36.2,30.03,WSW,257,4.9,4.9,30,0.00,,---,0.00,VWS V14.01,2013-08-04 03:40:00,
2013-08-03 20:46:00,68.4,35.8,30.03,West,280,3.6,4.0,30,0.00,,---,0.00,VWS V14.01,2013-08-04 03:46:00,
2013-08-03 20:52:00,67.6,37.5,30.03,WNW,291,3.6,3.6,33,0.00,,---,0.00,VWS V14.01,2013-08-04 03:52:00,
2013-08-03 20:58:00,67.8,37.7,30.03,WNW,282,3.6,4.0,33,0.00,,---,0.00,VWS V14.01,2013-08-04 03:58:00,
2013-08-03 21:01:00,67.8,37.7,30.03,WNW,282,3.6,3.6,33,0.00,,---,0.00,VWS V14.01,2013-08-04 04:01:00,
2013-08-03 21:02:00,67.8,37.7,30.03,WNW,284,2.2,3.6,33,0.00,,---,0.00,VWS V14.01,2013-08-04 04:02:00,
2013-08-03 21:03:00,67.8,37.7,30.03,WNW,284,0.0,2.2,33,0.00,,---,0.00,VWS V14.01,2013-08-04 04:03:00,
2013-08-03 21:07:00,67.3,37.2,30.03,NE,55,4.5,4.9,33,0.00,,---,0.00,VWS V14.01,2013-08-04 04:07:00,
2013-08-03 21:12:00,66.6,36.6,30.03,NNE,24,3.6,3.6,33,0.00,,---,0.00,VWS V14.01,2013-08-04 04:12:00,
2013-08-03 21:17:00,66.0,37.2,30.03,North,7,3.1,4.0,34,0.00,,---,0.00,VWS V14.01,2013-08-04 04:17:00,
2013-08-03 21:22:00,65.5,36.8,30.06,North,0,2.2,2.7,34,0.00,,---,0.00,VWS V14.01,2013-08-04 04:22:00,
2013-08-03 21:28:00,64.9,36.3,30.06,North,0,0.0,0.0,34,0.00,,---,0.00,VWS V14.01,2013-08-04 04:28:00,
2013-08-03 21:33:00,64.8,36.1,30.06,North,0,0.0,0.0,34,0.00,,---,0.00,VWS V14.01,2013-08-04 04:33:00,
2013-08-03 21:39:00,64.8,36.1,30.06,ENE,58,0.0,0.0,34,0.00,,---,0.00,VWS V14.01,2013-08-04 04:39:00,
2013-08-03 21:44:00,64.4,35.8,30.06,ENE,58,4.0,4.0,34,0.00,,---,0.00,VWS V14.01,2013-08-04 04:44:00,
2013-08-03 21:50:00,64.2,35.7,30.06,NE,51,0.0,0.0,34,0.00,,---,0.00,VWS V14.01,2013-08-04 04:50:00,
2013-08-03 21:55:00,63.7,35.2,30.06,NE,51,0.0,0.0,34,0.00,,---,0.00,VWS V14.01,2013-08-04 04:55:00,
2013-08-03 22:00:00,63.5,35.0,30.06,NE,51,0.0,0.0,34,0.00,,---,0.00,VWS V14.01,2013-08-04 05:00:00,
2013-08-03 22:06:00,63.1,34.7,30.06,ENE,60,0.0,0.0,34,0.00,,---,0.00,VWS V14.01,2013-08-04 05:06:00,
2013-08-03 22:12:00,62.8,34.4,30.06,ENE,57,0.0,0.0,34,0.00,,---,0.00,VWS V14.01,2013-08-04 05:12:00,
2013-08-03 22:17:00,62.4,35.1,30.06,ENE,59,0.0,0.0,36,0.00,,---,0.00,VWS V14.01,2013-08-04 05:17:00,
2013-08-03 22:22:00,61.9,34.7,30.06,NE,35,0.0,0.0,36,0.00,,---,0.00,VWS V14.01,2013-08-04 05:22:00,
2013-08-03 22:28:00,61.3,34.2,30.06,ENE,58,5.4,5.4,36,0.00,,---,0.00,VWS V14.01,2013-08-04 05:28:00,
2013-08-03 22:33:00,60.8,33.7,30.06,NE,55,3.6,3.6,36,0.00,,---,0.00,VWS V14.01,2013-08-04 05:33:00,
2013-08-03 22:39:00,60.3,33.2,30.06,NE,55,0.0,0.0,36,0.00,,---,0.00,VWS V14.01,2013-08-04 05:39:00,
2013-08-03 22:44:00,60.1,33.1,30.06,NE,55,0.0,0.0,36,0.00,,---,0.00,VWS V14.01,2013-08-04 05:44:00,
2013-08-03 22:50:00,60.1,33.1,30.06,NE,55,0.0,0.0,36,0.00,,---,0.00,VWS V14.01,2013-08-04 05:50:00,
2013-08-03 22:55:00,59.7,32.7,30.06,ENE,69,0.0,0.0,36,0.00,,---,0.00,VWS V14.01,2013-08-04 05:55:00,
2013-08-03 23:00:00,59.4,32.4,30.06,SE,128,0.0,0.0,36,0.00,,---,0.00,VWS V14.01,2013-08-04 06:00:00,
2013-08-03 23:06:00,59.2,32.3,30.06,East,94,2.7,3.1,36,0.00,,---,0.00,VWS V14.01,2013-08-04 06:06:00,
2013-08-03 23:12:00,58.6,32.8,30.06,NE,55,0.0,0.0,38,0.00,,---,0.00,VWS V14.01,2013-08-04 06:12:00,
2013-08-03 23:17:00,57.9,32.2,30.06,NE,55,0.0,0.0,38,0.00,,---,0.00,VWS V14.01,2013-08-04 06:17:00,
2013-08-03 23:23:00,57.6,31.8,30.06,NE,55,0.0,0.0,38,0.00,,---,0.00,VWS V14.01,2013-08-04 06:23:00,
2013-08-03 23:28:00,57.6,31.8,30.06,NE,55,0.0,0.0,38,0.00,,---,0.00,VWS V14.01,2013-08-04 06:28:00,
2013-08-03 23:33:00,57.4,31.7,30.06,NE,55,0.0,0.0,38,0.00,,---,0.00,VWS V14.01,2013-08-04 06:33:00,
2013-08-03 23:39:00,57.4,31.7,30.06,NE,55,0.0,0.0,38,0.00,,---,0.00,VWS V14.01,2013-08-04 06:39:00,
2013-08-03 23:43:00,57.2,31.5,30.06,ENE,74,4.9,5.4,38,0.00,,---,0.00,VWS V14.01,2013-08-04 06:43:00,
2013-08-03 23:49:00,56.7,32.0,30.06,NE,46,3.6,4.0,39,0.00,,---,0.00,VWS V14.01,2013-08-04 06:49:00,
2013-08-03 23:56:00,56.3,31.7,30.06,ENE,65,4.0,4.9,39,0.00,,---,0.00,VWS V14.01,2013-08-04 06:56:00,